Location: M�nchen
(48.1404°N, 11.6043°E)
Time: 03:02:25
(UTC+01:00)

Tiangong 1 - Visible Passes

Search period start: 22 November 2017 00:00
Search period end: 02 December 2017 00:00
Orbit: 284 x 308 km, 42.8° (Epoch: 21 November)

Date Brightness Start Highest point End Pass type
(mag) Time Alt. Az. Time Alt. Az. Time Alt. Az.
27 Nov 2.9 18:01:00 10° SSW 18:02:32 14° SSE 18:02:44 14° SSE visible
28 Nov 2.6 18:06:37 10° SW 18:08:34 19° SSE 18:08:39 19° SSE visible
29 Nov 2.4 18:12:23 10° SW 18:14:28 23° S 18:14:28 23° S visible
30 Nov 2.5 18:18:10 10° WSW 18:20:09 24° S 18:20:09 24° S visible
01 Dec 2.7 18:23:57 10° WSW 18:25:46 22° SSW 18:25:46 22° SSW visible
